Orbital Elements at Epoch 2459000.5 (2020-May-31.0) TDB
Reference: JPL 4 (heliocentric ecliptic J2000)
Element | Value | Uncertainty (1-sigma) | Units |
e | .3600026390110744 | 0.00047746 | |
a | 56.00875339380791 | 0.036194 | au |
q | 35.84545436431659 | 0.016069 | au |
i | 14.67881791197944 | 0.0012815 | deg |
node | 35.76506515221876 | 0.0012247 | deg |
peri | 231.2675135034866 | 0.12288 | deg |
M | 357.0650042663602 | 0.047859 | deg |
tp | 2460248.708857807731 (2023-Oct-31.20885781) | 20.24 | TDB |
period | 153102.5015336303 419.17 | 148.41 0.4063 | d yr |
n | .002351365891437918 | 2.2792e-06 | deg/d |
Q | 76.17205242329923 | 0.049223 | au |
|
| | Orbit Determination Parameters
Additional Information
|